GEFSGL_prec_meanprecacc_180.txt.gz
Total_Precipitation_Accumulation
0.89 0.95 0.94 0.99 1.09 1.37 1.58 1.52 1.35 1.36 1.40 1.37 1.33 1.42 1.57 1.71 1.82 1.95 2.01 2.01 2.05 2.18 2.12 2.08 2.16 2.27 2.50 2.46 2.51 2.50 2.39 2.29 2.24 2.02 1.65 1.59 1.78 1.85 1.75 1.56 1.39 1.33 1.15
0.72 0.77 0.85 0.87 0.96 1.08 1.20 1.22 1.16 1.10 1.07 1.14 1.20 1.22 1.31 1.48 1.61 1.66 1.67 1.71 1.78 1.90 1.97 1.91 1.93 2.00 2.12 2.33 2.44 2.43 2.43 2.36 2.34 2.28 1.94 1.72 1.65 1.72 1.76 1.77 1.52 1.37 1.27
0.65 0.71 0.79 0.81 0.83 0.85 0.86 0.79 0.83 0.86 0.94 1.00 1.12 1.18 1.27 1.36 1.51 1.54 1.52 1.49 1.53 1.60 1.74 1.81 1.85 1.88 1.90 2.02 2.00 2.10 2.23 2.39 2.47 2.38 2.20 1.96 1.78 1.72 1.74 1.73 1.66 1.65 1.47
0.76 0.83 0.88 0.89 0.88 0.88 0.86 0.82 0.81 0.84 0.90 1.02 1.21 1.28 1.30 1.33 1.34 1.39 1.46 1.43 1.33 1.30 1.37 1.41 1.54 1.67 1.70 1.87 1.85 1.86 2.02 2.26 2.52 2.51 2.36 2.13 1.95 1.87 1.82 1.78 1.79 1.72 1.65
0.68 0.80 0.85 0.87 0.89 0.85 0.79 0.77 0.81 0.78 0.77 0.92 1.09 1.25 1.30 1.30 1.27 1.35 1.42 1.44 1.38 1.24 1.19 1.21 1.26 1.40 1.67 1.78 1.73 1.93 2.07 2.12 2.26 2.38 2.38 2.29 2.08 1.90 1.75 1.67 1.73 1.78 1.77
0.58 0.69 0.84 0.89 0.81 0.77 0.70 0.69 0.73 0.71 0.68 0.78 0.93 1.10 1.20 1.19 1.59 1.59 1.42 1.41 1.38 1.25 1.16 1.15 1.11 1.11 1.33 1.61 1.76 1.88 2.01 2.10 2.13 2.15 2.19 2.12 2.04 1.97 1.98 1.90 1.81 1.74 1.70
0.52 0.65 0.84 0.83 0.72 0.66 0.72 0.76 0.73 0.71 0.72 0.76 0.80 0.83 0.93 1.22 1.27 1.07 1.12 1.17 1.29 1.21 1.09 1.02 0.93 0.92 1.07 1.16 1.31 1.42 1.62 1.92 2.13 2.16 2.03 1.91 1.99 1.94 1.94 1.94 1.87 1.79 1.69
0.42 0.53 0.68 0.69 0.67 0.71 0.71 0.69 0.65 0.60 0.59 0.63 0.65 0.70 0.77 0.92 0.92 0.86 0.96 0.93 1.08 1.10 1.00 0.96 0.95 0.94 1.00 1.05 1.17 1.30 1.33 1.41 1.65 1.72 1.72 1.74 1.77 1.89 1.94 1.97 2.04 1.99 1.96
0.29 0.38 0.47 0.51 0.56 0.58 0.57 0.57 0.53 0.50 0.52 0.54 0.58 0.66 0.75 0.75 0.77 0.76 0.82 0.93 1.09 1.07 0.96 0.96 0.95 0.93 1.10 1.16 1.15 1.23 1.33 1.32 1.45 1.62 1.83 1.81 1.71 1.69 1.79 1.83 1.94 1.96 1.95
0.21 0.28 0.35 0.38 0.42 0.44 0.49 0.52 0.52 0.49 0.47 0.47 0.50 0.55 0.63 0.66 0.78 0.67 0.77 0.96 1.08 1.11 1.07 0.98 1.08 1.08 1.19 1.16 1.12 1.26 1.34 1.20 1.13 1.22 1.38 1.42 1.32 1.33 1.50 1.51 1.71 1.83 1.74
0.12 0.17 0.23 0.31 0.38 0.46 0.52 0.53 0.56 0.53 0.49 0.48 0.55 0.56 0.56 0.65 0.78 0.73 0.77 0.87 1.08 1.11 1.14 1.07 0.95 1.01 1.02 1.08 1.16 1.24 1.44 1.29 1.15 1.21 1.33 1.31 1.18 1.15 1.20 1.26 1.40 1.64 1.68
0.08 0.13 0.19 0.27 0.34 0.43 0.52 0.55 0.55 0.55 0.55 0.56 0.57 0.60 0.59 0.58 0.66 0.70 0.72 0.79 0.92 0.97 1.07 1.03 0.94 0.97 0.85 0.87 0.93 1.07 1.36 1.28 1.13 1.17 1.22 1.24 1.18 1.10 1.14 1.14 1.20 1.32 1.45
0.04 0.08 0.13 0.17 0.21 0.26 0.34 0.42 0.48 0.53 0.55 0.56 0.60 0.68 0.70 0.65 0.69 0.80 0.67 0.64 0.71 0.75 0.77 0.87 0.84 0.81 0.75 0.71 0.79 0.92 1.06 1.21 1.22 1.16 1.10 1.09 1.09 1.08 1.13 1.09 1.08 1.16 1.20
0.03 0.04 0.07 0.08 0.09 0.11 0.21 0.29 0.36 0.44 0.50 0.58 0.64 0.73 0.82 0.77 0.70 0.67 0.60 0.58 0.61 0.58 0.52 0.52 0.54 0.59 0.60 0.61 0.67 0.73 0.87 1.08 1.21 1.14 1.03 1.04 1.06 1.06 1.07 1.00 1.00 1.07 1.11
0.02 0.02 0.04 0.05 0.07 0.09 0.15 0.24 0.28 0.36 0.39 0.44 0.55 0.68 0.74 0.74 0.73 0.81 0.80 0.76 0.72 0.70 0.64 0.56 0.51 0.55 0.61 0.66 0.67 0.69 0.77 0.91 1.01 1.00 0.95 0.91 0.96 1.01 1.01 0.95 0.92 0.96 1.00
0.07 0.04 0.04 0.05 0.07 0.10 0.13 0.14 0.14 0.18 0.18 0.22 0.29 0.36 0.42 0.46 0.48 0.48 0.55 0.63 0.63 0.61 0.72 0.75 0.71 0.73 0.73 0.69 0.70 0.66 0.63 0.69 0.81 0.88 0.89 0.85 0.83 0.88 0.94 0.94 0.93 0.94 0.96
0.15 0.12 0.08 0.07 0.07 0.08 0.10 0.12 0.13 0.09 0.07 0.09 0.11 0.18 0.26 0.30 0.30 0.32 0.36 0.44 0.52 0.56 0.70 0.73 0.65 0.60 0.58 0.56 0.58 0.58 0.58 0.57 0.62 0.73 0.78 0.80 0.78 0.80 0.89 0.94 0.95 0.98 0.98
0.05 0.05 0.06 0.09 0.08 0.07 0.11 0.17 0.22 0.25 0.19 0.11 0.07 0.11 0.17 0.22 0.26 0.29 0.34 0.39 0.40 0.42 0.50 0.57 0.54 0.49 0.44 0.43 0.42 0.42 0.45 0.48 0.52 0.58 0.65 0.70 0.76 0.80 0.83 0.89 0.93 0.92 0.93
0.02 0.05 0.11 0.13 0.08 0.09 0.15 0.22 0.25 0.25 0.24 0.17 0.10 0.08 0.10 0.13 0.18 0.22 0.29 0.34 0.33 0.28 0.29 0.37 0.40 0.40 0.37 0.32 0.29 0.28 0.29 0.30 0.35 0.43 0.53 0.59 0.65 0.71 0.76 0.80 0.84 0.89 0.89
0.04 0.05 0.12 0.18 0.12 0.13 0.16 0.16 0.16 0.19 0.17 0.14 0.12 0.10 0.11 0.13 0.15 0.17 0.20 0.23 0.24 0.22 0.23 0.27 0.29 0.30 0.30 0.28 0.26 0.25 0.26 0.28 0.29 0.34 0.43 0.53 0.58 0.60 0.61 0.67 0.75 0.79 0.77
0.08 0.06 0.07 0.19 0.22 0.19 0.19 0.18 0.19 0.21 0.18 0.14 0.10 0.07 0.09 0.13 0.15 0.17 0.19 0.22 0.23 0.25 0.25 0.25 0.24 0.28 0.27 0.26 0.26 0.28 0.29 0.30 0.29 0.32 0.36 0.41 0.46 0.51 0.53 0.55 0.57 0.63 0.68
0.05 0.06 0.08 0.18 0.23 0.20 0.17 0.18 0.20 0.20 0.18 0.16 0.12 0.09 0.09 0.11 0.13 0.17 0.19 0.24 0.26 0.28 0.28 0.26 0.27 0.29 0.30 0.26 0.26 0.29 0.31 0.32 0.31 0.32 0.35 0.37 0.40 0.43 0.46 0.47 0.49 0.52 0.54
0.05 0.06 0.07 0.12 0.14 0.11 0.12 0.16 0.17 0.18 0.17 0.16 0.14 0.13 0.12 0.12 0.13 0.16 0.20 0.27 0.32 0.34 0.30 0.27 0.28 0.31 0.33 0.33 0.32 0.33 0.33 0.33 0.33 0.33 0.36 0.40 0.43 0.46 0.48 0.49 0.49 0.52 0.57
0.06 0.06 0.07 0.09 0.10 0.12 0.16 0.17 0.17 0.16 0.18 0.18 0.16 0.16 0.16 0.15 0.14 0.16 0.20 0.26 0.30 0.32 0.31 0.28 0.27 0.30 0.34 0.37 0.39 0.39 0.36 0.34 0.31 0.31 0.35 0.38 0.41 0.43 0.46 0.48 0.50 0.51 0.57
0.08 0.07 0.08 0.09 0.11 0.13 0.14 0.16 0.17 0.18 0.19 0.22 0.22 0.20 0.19 0.19 0.18 0.17 0.19 0.23 0.25 0.25 0.27 0.28 0.31 0.35 0.36 0.34 0.36 0.39 0.47 0.46 0.39 0.36 0.35 0.38 0.42 0.44 0.47 0.51 0.54 0.57 0.61
0.08 0.07 0.08 0.11 0.13 0.15 0.16 0.17 0.17 0.18 0.20 0.22 0.24 0.25 0.25 0.23 0.21 0.20 0.21 0.24 0.23 0.24 0.27 0.29 0.31 0.32 0.34 0.32 0.29 0.30 0.35 0.36 0.36 0.37 0.36 0.37 0.42 0.47 0.51 0.54 0.57 0.62 0.67

GEFSGL_prec_meanprecacc_186.txt.gz
Total_Precipitation_Accumulation
0.90 0.96 0.95 0.99 1.09 1.37 1.59 1.53 1.35 1.36 1.40 1.37 1.33 1.42 1.58 1.71 1.82 1.95 2.01 2.01 2.05 2.18 2.12 2.08 2.16 2.27 2.50 2.46 2.52 2.50 2.39 2.29 2.25 2.03 1.68 1.66 1.86 1.92 1.81 1.61 1.44 1.37 1.18
0.73 0.78 0.86 0.87 0.97 1.09 1.21 1.23 1.17 1.10 1.08 1.14 1.20 1.22 1.31 1.48 1.61 1.66 1.67 1.71 1.78 1.90 1.97 1.91 1.93 2.00 2.12 2.33 2.44 2.43 2.43 2.36 2.35 2.29 1.95 1.76 1.71 1.81 1.84 1.81 1.57 1.41 1.30
0.66 0.72 0.79 0.81 0.83 0.85 0.86 0.79 0.83 0.86 0.94 1.00 1.12 1.18 1.27 1.36 1.51 1.54 1.52 1.49 1.53 1.60 1.74 1.81 1.86 1.88 1.90 2.02 2.00 2.10 2.23 2.40 2.47 2.38 2.21 1.97 1.81 1.77 1.82 1.79 1.72 1.70 1.49
0.77 0.84 0.89 0.89 0.88 0.89 0.87 0.82 0.82 0.84 0.90 1.02 1.21 1.28 1.30 1.33 1.34 1.39 1.46 1.43 1.33 1.30 1.37 1.41 1.54 1.67 1.70 1.87 1.85 1.86 2.02 2.26 2.52 2.51 2.36 2.13 1.96 1.89 1.85 1.82 1.85 1.79 1.70
0.69 0.80 0.85 0.87 0.89 0.85 0.79 0.77 0.81 0.78 0.77 0.92 1.09 1.25 1.30 1.30 1.27 1.35 1.42 1.44 1.38 1.24 1.19 1.21 1.26 1.40 1.67 1.78 1.74 1.93 2.08 2.12 2.26 2.38 2.38 2.30 2.09 1.91 1.77 1.68 1.76 1.82 1.82
0.58 0.70 0.85 0.89 0.81 0.77 0.70 0.69 0.73 0.71 0.68 0.78 0.93 1.10 1.20 1.19 1.59 1.59 1.42 1.41 1.38 1.25 1.16 1.15 1.11 1.11 1.33 1.62 1.77 1.90 2.02 2.10 2.14 2.16 2.20 2.13 2.05 1.98 2.00 1.91 1.82 1.76 1.72
0.53 0.66 0.85 0.84 0.72 0.66 0.72 0.76 0.73 0.71 0.72 0.76 0.80 0.83 0.93 1.22 1.27 1.07 1.12 1.17 1.29 1.21 1.09 1.02 0.93 0.92 1.07 1.17 1.32 1.44 1.64 1.93 2.13 2.16 2.03 1.91 1.99 1.95 1.95 1.95 1.87 1.79 1.69
0.43 0.53 0.69 0.70 0.68 0.71 0.71 0.69 0.65 0.60 0.59 0.63 0.65 0.70 0.78 0.92 0.92 0.86 0.96 0.93 1.08 1.10 1.00 0.96 0.95 0.94 1.00 1.05 1.18 1.30 1.34 1.43 1.66 1.72 1.72 1.74 1.78 1.92 1.96 1.99 2.06 2.00 1.97
0.29 0.38 0.48 0.52 0.56 0.58 0.57 0.57 0.53 0.50 0.52 0.54 0.58 0.66 0.75 0.75 0.77 0.76 0.82 0.93 1.09 1.07 0.96 0.96 0.95 0.93 1.10 1.17 1.15 1.23 1.33 1.33 1.46 1.63 1.84 1.82 1.72 1.72 1.82 1.85 1.96 1.99 1.97
0.21 0.28 0.36 0.39 0.43 0.44 0.49 0.52 0.52 0.49 0.47 0.48 0.51 0.55 0.63 0.66 0.78 0.67 0.77 0.96 1.08 1.11 1.07 0.98 1.08 1.08 1.19 1.16 1.12 1.26 1.34 1.20 1.13 1.23 1.38 1.43 1.34 1.35 1.55 1.55 1.74 1.86 1.77
0.13 0.18 0.24 0.32 0.39 0.46 0.53 0.54 0.56 0.54 0.49 0.48 0.55 0.57 0.56 0.65 0.78 0.73 0.77 0.87 1.08 1.11 1.14 1.07 0.95 1.01 1.02 1.09 1.16 1.25 1.45 1.30 1.15 1.21 1.33 1.31 1.19 1.16 1.22 1.28 1.43 1.68 1.71
0.09 0.14 0.20 0.28 0.35 0.43 0.53 0.56 0.56 0.56 0.55 0.56 0.58 0.61 0.59 0.58 0.66 0.70 0.72 0.79 0.92 0.97 1.07 1.03 0.94 0.98 0.86 0.88 0.94 1.08 1.37 1.29 1.14 1.17 1.23 1.24 1.19 1.11 1.15 1.15 1.22 1.35 1.48
0.06 0.09 0.14 0.18 0.22 0.27 0.35 0.43 0.49 0.53 0.55 0.56 0.60 0.68 0.70 0.65 0.69 0.80 0.67 0.64 0.71 0.75 0.77 0.87 0.84 0.81 0.75 0.71 0.81 0.94 1.07 1.21 1.22 1.16 1.10 1.10 1.09 1.08 1.13 1.10 1.09 1.17 1.21
0.04 0.06 0.08 0.09 0.09 0.12 0.21 0.30 0.36 0.44 0.50 0.58 0.65 0.73 0.82 0.78 0.71 0.67 0.61 0.58 0.61 0.58 0.53 0.52 0.55 0.59 0.60 0.61 0.67 0.73 0.88 1.09 1.22 1.15 1.04 1.05 1.07 1.06 1.08 1.01 1.01 1.08 1.12
0.03 0.04 0.05 0.06 0.08 0.10 0.16 0.24 0.28 0.36 0.39 0.44 0.55 0.68 0.74 0.74 0.73 0.81 0.81 0.77 0.73 0.70 0.65 0.56 0.52 0.55 0.62 0.66 0.67 0.69 0.77 0.91 1.02 1.01 0.95 0.92 0.97 1.02 1.02 0.95 0.92 0.96 1.00
0.09 0.05 0.05 0.06 0.08 0.10 0.13 0.15 0.15 0.18 0.19 0.23 0.29 0.36 0.42 0.46 0.48 0.48 0.56 0.63 0.63 0.61 0.72 0.75 0.71 0.73 0.73 0.69 0.70 0.66 0.64 0.69 0.82 0.89 0.90 0.86 0.84 0.89 0.95 0.94 0.93 0.95 0.97
0.18 0.14 0.10 0.08 0.08 0.09 0.10 0.12 0.13 0.10 0.08 0.09 0.12 0.18 0.27 0.30 0.31 0.32 0.36 0.44 0.52 0.56 0.70 0.73 0.66 0.60 0.59 0.56 0.58 0.58 0.58 0.58 0.63 0.73 0.79 0.81 0.78 0.80 0.89 0.94 0.95 0.98 0.98
0.06 0.08 0.08 0.11 0.09 0.09 0.11 0.18 0.23 0.26 0.20 0.12 0.08 0.11 0.17 0.23 0.26 0.29 0.34 0.39 0.40 0.42 0.50 0.57 0.54 0.49 0.45 0.44 0.43 0.42 0.45 0.48 0.52 0.58 0.65 0.70 0.76 0.80 0.83 0.90 0.93 0.92 0.93
0.03 0.06 0.12 0.14 0.10 0.10 0.16 0.23 0.26 0.26 0.25 0.18 0.11 0.08 0.10 0.14 0.18 0.22 0.29 0.34 0.33 0.28 0.29 0.37 0.41 0.41 0.37 0.33 0.29 0.28 0.29 0.31 0.36 0.44 0.53 0.60 0.65 0.71 0.76 0.81 0.85 0.90 0.90
0.05 0.06 0.13 0.19 0.13 0.13 0.17 0.17 0.17 0.19 0.18 0.14 0.12 0.11 0.11 0.13 0.15 0.17 0.20 0.23 0.24 0.22 0.23 0.28 0.30 0.31 0.31 0.30 0.27 0.25 0.27 0.29 0.30 0.35 0.43 0.53 0.58 0.60 0.61 0.67 0.75 0.79 0.78
0.09 0.06 0.08 0.19 0.23 0.20 0.19 0.18 0.20 0.22 0.18 0.14 0.10 0.08 0.10 0.13 0.15 0.17 0.19 0.22 0.23 0.25 0.26 0.25 0.26 0.30 0.28 0.27 0.27 0.28 0.30 0.30 0.29 0.32 0.36 0.41 0.46 0.51 0.53 0.55 0.57 0.63 0.68
0.05 0.06 0.08 0.18 0.24 0.20 0.17 0.19 0.20 0.20 0.18 0.16 0.13 0.09 0.09 0.11 0.13 0.17 0.20 0.24 0.26 0.28 0.28 0.27 0.28 0.31 0.32 0.29 0.28 0.29 0.32 0.32 0.31 0.32 0.35 0.38 0.40 0.43 0.47 0.48 0.49 0.52 0.55
0.05 0.06 0.08 0.12 0.14 0.11 0.12 0.16 0.18 0.18 0.18 0.16 0.14 0.13 0.12 0.12 0.13 0.16 0.20 0.27 0.33 0.34 0.30 0.27 0.29 0.33 0.36 0.36 0.34 0.34 0.34 0.33 0.33 0.34 0.37 0.41 0.44 0.46 0.48 0.50 0.49 0.53 0.57
0.06 0.07 0.08 0.10 0.11 0.13 0.16 0.18 0.17 0.17 0.18 0.18 0.17 0.16 0.16 0.15 0.14 0.16 0.21 0.26 0.31 0.32 0.31 0.28 0.28 0.32 0.37 0.40 0.42 0.40 0.37 0.34 0.31 0.32 0.35 0.39 0.42 0.44 0.46 0.49 0.51 0.52 0.57
0.08 0.07 0.08 0.10 0.11 0.13 0.14 0.16 0.17 0.18 0.20 0.22 0.23 0.20 0.20 0.19 0.18 0.17 0.19 0.23 0.25 0.26 0.27 0.29 0.32 0.36 0.38 0.37 0.38 0.40 0.48 0.46 0.39 0.36 0.36 0.39 0.43 0.45 0.48 0.52 0.55 0.58 0.61
0.08 0.08 0.09 0.12 0.14 0.15 0.16 0.17 0.18 0.19 0.21 0.23 0.25 0.26 0.26 0.24 0.21 0.21 0.22 0.25 0.24 0.24 0.28 0.29 0.31 0.34 0.35 0.35 0.32 0.33 0.37 0.36 0.37 0.38 0.36 0.38 0.42 0.48 0.52 0.56 0.58 0.63 0.69

GEFSGL_prec_meanprecacc_192.txt.gz
Total_Precipitation_Accumulation
0.91 0.97 0.96 1.00 1.10 1.37 1.59 1.53 1.36 1.37 1.40 1.38 1.33 1.42 1.58 1.71 1.82 1.95 2.01 2.01 2.05 2.18 2.12 2.08 2.16 2.27 2.51 2.47 2.52 2.50 2.39 2.30 2.26 2.03 1.69 1.69 1.91 1.99 1.89 1.69 1.51 1.44 1.24
0.74 0.79 0.87 0.89 0.97 1.09 1.21 1.23 1.18 1.11 1.09 1.15 1.20 1.22 1.31 1.49 1.61 1.66 1.67 1.71 1.78 1.90 1.97 1.91 1.94 2.00 2.12 2.33 2.44 2.43 2.43 2.37 2.35 2.29 1.96 1.77 1.74 1.87 1.93 1.89 1.64 1.46 1.35
0.67 0.73 0.80 0.82 0.84 0.86 0.87 0.80 0.83 0.87 0.94 1.00 1.13 1.18 1.28 1.36 1.52 1.54 1.52 1.49 1.53 1.60 1.74 1.81 1.86 1.88 1.90 2.03 2.00 2.10 2.23 2.40 2.47 2.38 2.22 1.99 1.83 1.81 1.87 1.85 1.78 1.77 1.54
0.78 0.85 0.89 0.90 0.89 0.89 0.87 0.82 0.82 0.84 0.90 1.02 1.21 1.28 1.30 1.33 1.34 1.39 1.46 1.43 1.33 1.30 1.37 1.41 1.54 1.67 1.70 1.88 1.85 1.86 2.02 2.26 2.52 2.52 2.39 2.15 1.98 1.92 1.88 1.86 1.91 1.86 1.77
0.70 0.81 0.86 0.88 0.89 0.86 0.79 0.77 0.82 0.78 0.77 0.92 1.09 1.25 1.30 1.30 1.27 1.35 1.42 1.44 1.38 1.24 1.19 1.21 1.26 1.40 1.67 1.78 1.74 1.93 2.08 2.12 2.27 2.39 2.39 2.31 2.14 1.94 1.79 1.72 1.80 1.86 1.88
0.60 0.71 0.87 0.90 0.81 0.77 0.70 0.70 0.73 0.71 0.69 0.78 0.93 1.11 1.21 1.19 1.59 1.59 1.42 1.41 1.38 1.25 1.16 1.15 1.11 1.11 1.33 1.62 1.77 1.90 2.03 2.10 2.14 2.16 2.20 2.14 2.07 1.99 2.01 1.93 1.85 1.79 1.76
0.53 0.67 0.86 0.85 0.72 0.67 0.72 0.77 0.73 0.71 0.72 0.76 0.80 0.83 0.93 1.22 1.27 1.07 1.12 1.17 1.29 1.21 1.09 1.02 0.93 0.92 1.07 1.17 1.32 1.44 1.64 1.94 2.14 2.17 2.04 1.92 2.00 1.96 1.96 1.97 1.89 1.82 1.74
0.44 0.54 0.70 0.72 0.69 0.71 0.71 0.69 0.65 0.60 0.59 0.63 0.65 0.70 0.78 0.92 0.92 0.86 0.96 0.93 1.08 1.10 1.00 0.96 0.95 0.94 1.00 1.05 1.18 1.31 1.34 1.43 1.67 1.72 1.73 1.74 1.78 1.93 1.98 2.01 2.08 2.02 2.00
0.30 0.39 0.50 0.53 0.57 0.58 0.57 0.57 0.54 0.50 0.52 0.54 0.58 0.66 0.75 0.75 0.77 0.76 0.82 0.93 1.09 1.07 0.96 0.96 0.95 0.93 1.10 1.17 1.16 1.24 1.34 1.33 1.46 1.63 1.84 1.82 1.72 1.73 1.84 1.86 1.97 2.00 1.99
0.22 0.29 0.37 0.40 0.43 0.45 0.50 0.52 0.52 0.49 0.48 0.48 0.51 0.55 0.63 0.66 0.78 0.67 0.77 0.96 1.08 1.11 1.07 0.98 1.08 1.08 1.19 1.16 1.12 1.26 1.34 1.20 1.13 1.23 1.39 1.43 1.34 1.36 1.56 1.57 1.76 1.88 1.79
0.14 0.19 0.25 0.33 0.40 0.47 0.53 0.54 0.56 0.54 0.49 0.48 0.55 0.57 0.56 0.65 0.78 0.73 0.77 0.87 1.08 1.12 1.14 1.08 0.95 1.02 1.02 1.09 1.16 1.25 1.45 1.30 1.16 1.22 1.33 1.31 1.19 1.17 1.24 1.32 1.46 1.70 1.73
0.10 0.14 0.21 0.29 0.36 0.44 0.54 0.57 0.56 0.56 0.55 0.57 0.58 0.61 0.59 0.59 0.66 0.70 0.72 0.80 0.92 0.97 1.07 1.03 0.94 0.98 0.87 0.88 0.94 1.09 1.37 1.29 1.14 1.18 1.23 1.24 1.19 1.11 1.16 1.18 1.25 1.37 1.50
0.06 0.10 0.16 0.19 0.23 0.28 0.35 0.43 0.49 0.54 0.55 0.56 0.61 0.69 0.71 0.65 0.69 0.80 0.67 0.64 0.71 0.75 0.77 0.87 0.85 0.81 0.75 0.72 0.81 0.94 1.07 1.21 1.23 1.17 1.10 1.10 1.09 1.09 1.14 1.11 1.10 1.18 1.22
0.05 0.07 0.09 0.11 0.10 0.13 0.22 0.30 0.37 0.44 0.50 0.58 0.65 0.74 0.82 0.78 0.71 0.67 0.61 0.59 0.61 0.58 0.53 0.53 0.55 0.59 0.60 0.61 0.67 0.74 0.88 1.09 1.22 1.16 1.04 1.05 1.07 1.06 1.08 1.01 1.02 1.09 1.12
0.04 0.05 0.06 0.07 0.09 0.11 0.17 0.24 0.29 0.37 0.39 0.45 0.56 0.69 0.75 0.74 0.73 0.82 0.81 0.77 0.73 0.70 0.65 0.57 0.52 0.55 0.62 0.66 0.67 0.69 0.77 0.91 1.02 1.02 0.96 0.93 0.97 1.02 1.02 0.96 0.93 0.97 1.01
0.09 0.06 0.06 0.07 0.09 0.12 0.15 0.16 0.16 0.19 0.19 0.23 0.30 0.36 0.42 0.46 0.49 0.49 0.56 0.63 0.64 0.61 0.72 0.75 0.71 0.74 0.73 0.70 0.70 0.66 0.64 0.69 0.82 0.90 0.91 0.87 0.84 0.89 0.95 0.95 0.94 0.96 0.97
0.19 0.15 0.11 0.09 0.10 0.11 0.12 0.14 0.15 0.11 0.09 0.10 0.12 0.19 0.27 0.31 0.32 0.33 0.37 0.45 0.52 0.56 0.70 0.73 0.66 0.60 0.59 0.56 0.58 0.58 0.58 0.58 0.63 0.74 0.79 0.82 0.79 0.81 0.90 0.95 0.96 0.99 0.99
0.08 0.09 0.10 0.13 0.11 0.11 0.14 0.20 0.25 0.27 0.21 0.13 0.08 0.12 0.18 0.24 0.27 0.30 0.35 0.40 0.40 0.42 0.50 0.57 0.54 0.49 0.45 0.44 0.43 0.42 0.45 0.48 0.52 0.59 0.66 0.71 0.77 0.81 0.84 0.90 0.94 0.93 0.93
0.05 0.08 0.14 0.16 0.11 0.11 0.17 0.25 0.27 0.27 0.26 0.19 0.11 0.09 0.11 0.15 0.19 0.23 0.29 0.34 0.34 0.28 0.30 0.37 0.41 0.41 0.38 0.33 0.30 0.28 0.30 0.32 0.36 0.45 0.54 0.60 0.66 0.72 0.76 0.81 0.85 0.91 0.90
0.08 0.09 0.15 0.20 0.14 0.14 0.17 0.18 0.18 0.20 0.19 0.15 0.12 0.12 0.12 0.14 0.16 0.17 0.21 0.24 0.24 0.23 0.24 0.28 0.30 0.32 0.31 0.30 0.28 0.26 0.28 0.30 0.31 0.36 0.44 0.54 0.59 0.61 0.62 0.67 0.76 0.80 0.79
0.11 0.08 0.09 0.20 0.24 0.20 0.20 0.19 0.20 0.22 0.19 0.15 0.11 0.08 0.11 0.14 0.16 0.18 0.20 0.22 0.24 0.25 0.26 0.26 0.26 0.30 0.29 0.28 0.28 0.29 0.30 0.31 0.30 0.33 0.37 0.42 0.47 0.52 0.54 0.56 0.58 0.64 0.69
0.07 0.07 0.09 0.19 0.24 0.21 0.18 0.19 0.21 0.20 0.19 0.16 0.13 0.09 0.10 0.11 0.14 0.17 0.20 0.24 0.27 0.28 0.29 0.27 0.29 0.31 0.33 0.30 0.29 0.31 0.33 0.34 0.32 0.33 0.36 0.39 0.41 0.44 0.47 0.48 0.50 0.53 0.56
0.06 0.07 0.08 0.13 0.15 0.12 0.13 0.17 0.18 0.19 0.18 0.17 0.15 0.14 0.12 0.13 0.13 0.16 0.21 0.28 0.33 0.34 0.31 0.27 0.29 0.34 0.37 0.37 0.35 0.35 0.35 0.34 0.34 0.35 0.38 0.42 0.44 0.47 0.49 0.50 0.50 0.54 0.59
0.07 0.07 0.08 0.10 0.11 0.13 0.16 0.18 0.17 0.17 0.19 0.19 0.17 0.17 0.17 0.15 0.15 0.17 0.21 0.27 0.31 0.32 0.31 0.29 0.29 0.32 0.37 0.41 0.43 0.41 0.38 0.36 0.33 0.33 0.36 0.40 0.43 0.45 0.48 0.50 0.52 0.54 0.59
0.08 0.08 0.09 0.10 0.12 0.14 0.15 0.17 0.18 0.19 0.21 0.23 0.23 0.21 0.21 0.20 0.19 0.18 0.20 0.24 0.26 0.26 0.28 0.29 0.32 0.36 0.38 0.38 0.39 0.42 0.50 0.48 0.42 0.38 0.38 0.41 0.45 0.47 0.50 0.53 0.56 0.59 0.63
0.09 0.08 0.09 0.12 0.14 0.16 0.16 0.18 0.18 0.20 0.22 0.24 0.26 0.27 0.26 0.24 0.22 0.22 0.23 0.26 0.25 0.25 0.28 0.30 0.32 0.34 0.36 0.36 0.34 0.35 0.40 0.40 0.39 0.40 0.39 0.40 0.45 0.50 0.54 0.57 0.60 0.65 0.70

GEFSGL_prec_meanprecacc_198.txt.gz
Total_Precipitation_Accumulation
0.92 0.98 0.97 1.01 1.10 1.38 1.60 1.55 1.36 1.37 1.41 1.38 1.33 1.42 1.58 1.71 1.82 1.95 2.01 2.01 2.05 2.18 2.12 2.08 2.16 2.27 2.51 2.48 2.53 2.51 2.40 2.31 2.27 2.05 1.70 1.69 1.92 2.02 1.94 1.74 1.57 1.50 1.29
0.74 0.80 0.88 0.89 0.97 1.09 1.21 1.24 1.18 1.11 1.09 1.15 1.20 1.22 1.31 1.49 1.61 1.66 1.67 1.71 1.78 1.90 1.97 1.91 1.94 2.01 2.13 2.34 2.44 2.44 2.44 2.38 2.36 2.31 1.97 1.78 1.75 1.88 1.97 1.94 1.69 1.51 1.38
0.67 0.73 0.80 0.82 0.84 0.86 0.87 0.80 0.84 0.87 0.95 1.01 1.13 1.19 1.28 1.36 1.52 1.54 1.52 1.49 1.53 1.61 1.74 1.81 1.86 1.88 1.91 2.03 2.01 2.10 2.24 2.40 2.48 2.39 2.23 2.01 1.84 1.82 1.89 1.88 1.82 1.82 1.57
0.78 0.85 0.90 0.90 0.89 0.89 0.87 0.83 0.82 0.85 0.90 1.03 1.22 1.29 1.31 1.33 1.34 1.39 1.46 1.43 1.33 1.31 1.37 1.41 1.54 1.67 1.70 1.88 1.85 1.86 2.02 2.27 2.53 2.54 2.41 2.17 2.00 1.94 1.90 1.88 1.93 1.91 1.81
0.70 0.82 0.86 0.88 0.90 0.86 0.80 0.78 0.82 0.79 0.78 0.92 1.09 1.26 1.31 1.30 1.27 1.35 1.42 1.44 1.38 1.24 1.19 1.21 1.26 1.40 1.67 1.78 1.74 1.94 2.08 2.13 2.28 2.41 2.41 2.33 2.15 1.96 1.81 1.74 1.82 1.90 1.94
0.60 0.71 0.87 0.90 0.82 0.78 0.71 0.70 0.73 0.72 0.69 0.78 0.93 1.11 1.21 1.19 1.59 1.59 1.42 1.41 1.38 1.25 1.16 1.15 1.11 1.11 1.33 1.62 1.77 1.90 2.03 2.11 2.15 2.18 2.22 2.16 2.10 2.02 2.05 1.97 1.88 1.83 1.81
0.54 0.68 0.87 0.85 0.73 0.67 0.72 0.77 0.74 0.72 0.73 0.77 0.80 0.83 0.93 1.22 1.27 1.07 1.12 1.17 1.29 1.21 1.09 1.02 0.93 0.92 1.07 1.17 1.33 1.44 1.64 1.94 2.15 2.18 2.06 1.93 2.01 1.97 1.98 2.01 1.92 1.85 1.77
0.44 0.55 0.71 0.72 0.69 0.72 0.71 0.69 0.65 0.61 0.60 0.64 0.65 0.70 0.78 0.92 0.92 0.86 0.96 0.93 1.09 1.10 1.00 0.96 0.95 0.95 1.00 1.05 1.18 1.32 1.34 1.44 1.67 1.73 1.74 1.75 1.79 1.94 2.00 2.04 2.10 2.04 2.02
0.30 0.40 0.51 0.54 0.58 0.59 0.57 0.58 0.54 0.50 0.52 0.54 0.58 0.66 0.75 0.75 0.77 0.76 0.82 0.93 1.09 1.07 0.96 0.96 0.95 0.93 1.10 1.17 1.16 1.25 1.35 1.34 1.46 1.63 1.84 1.82 1.73 1.73 1.84 1.88 1.99 2.03 2.02
0.22 0.29 0.38 0.41 0.44 0.46 0.50 0.53 0.52 0.49 0.48 0.48 0.51 0.55 0.63 0.66 0.78 0.67 0.77 0.96 1.08 1.11 1.07 0.98 1.08 1.08 1.19 1.16 1.12 1.27 1.35 1.21 1.13 1.23 1.39 1.43 1.34 1.36 1.57 1.59 1.78 1.92 1.84
0.14 0.19 0.26 0.34 0.41 0.48 0.53 0.54 0.57 0.54 0.49 0.48 0.55 0.57 0.56 0.66 0.78 0.74 0.78 0.87 1.08 1.12 1.14 1.08 0.95 1.02 1.02 1.09 1.16 1.25 1.45 1.30 1.16 1.23 1.34 1.32 1.20 1.18 1.25 1.33 1.47 1.72 1.78
0.10 0.15 0.23 0.31 0.40 0.47 0.55 0.58 0.57 0.57 0.56 0.57 0.59 0.61 0.59 0.59 0.67 0.71 0.73 0.81 0.93 0.97 1.07 1.04 0.94 0.98 0.87 0.88 0.94 1.09 1.37 1.29 1.15 1.19 1.24 1.25 1.20 1.12 1.16 1.18 1.26 1.38 1.52
0.07 0.11 0.17 0.21 0.25 0.31 0.40 0.49 0.54 0.56 0.57 0.57 0.61 0.69 0.71 0.65 0.70 0.81 0.68 0.65 0.72 0.76 0.77 0.87 0.85 0.81 0.75 0.72 0.81 0.94 1.07 1.22 1.24 1.18 1.12 1.11 1.10 1.09 1.14 1.11 1.11 1.19 1.23
0.06 0.09 0.11 0.13 0.13 0.15 0.25 0.32 0.39 0.46 0.52 0.59 0.65 0.74 0.83 0.78 0.71 0.68 0.62 0.59 0.62 0.59 0.53 0.53 0.55 0.59 0.60 0.61 0.67 0.74 0.88 1.09 1.22 1.16 1.05 1.06 1.07 1.06 1.08 1.01 1.02 1.09 1.13
0.05 0.06 0.07 0.08 0.10 0.12 0.17 0.25 0.30 0.38 0.40 0.46 0.57 0.69 0.76 0.75 0.74 0.83 0.82 0.78 0.74 0.71 0.65 0.57 0.52 0.55 0.62 0.66 0.67 0.69 0.77 0.91 1.02 1.02 0.97 0.93 0.98 1.03 1.03 0.96 0.93 0.97 1.01
0.10 0.07 0.07 0.08 0.10 0.12 0.15 0.17 0.17 0.20 0.21 0.24 0.31 0.38 0.43 0.47 0.50 0.50 0.57 0.64 0.64 0.62 0.72 0.75 0.71 0.74 0.73 0.70 0.70 0.66 0.64 0.70 0.83 0.90 0.91 0.87 0.85 0.90 0.96 0.95 0.95 0.97 0.98
0.20 0.16 0.12 0.10 0.11 0.12 0.13 0.15 0.16 0.13 0.11 0.12 0.14 0.21 0.28 0.32 0.33 0.33 0.38 0.46 0.53 0.56 0.70 0.73 0.66 0.60 0.59 0.56 0.58 0.59 0.58 0.58 0.64 0.74 0.80 0.82 0.79 0.81 0.91 0.97 0.97 1.01 1.01
0.09 0.10 0.11 0.14 0.13 0.12 0.15 0.21 0.26 0.29 0.22 0.13 0.09 0.13 0.19 0.25 0.28 0.31 0.36 0.40 0.40 0.42 0.50 0.58 0.55 0.50 0.45 0.44 0.43 0.42 0.45 0.49 0.52 0.59 0.67 0.72 0.77 0.81 0.85 0.91 0.95 0.94 0.95
0.05 0.09 0.15 0.17 0.13 0.13 0.19 0.26 0.29 0.28 0.27 0.19 0.12 0.10 0.12 0.15 0.20 0.24 0.30 0.35 0.34 0.29 0.30 0.38 0.42 0.42 0.38 0.33 0.30 0.29 0.30 0.32 0.37 0.45 0.55 0.61 0.67 0.73 0.77 0.82 0.87 0.92 0.92
0.09 0.11 0.18 0.22 0.16 0.17 0.19 0.19 0.19 0.21 0.19 0.15 0.13 0.12 0.13 0.15 0.16 0.18 0.21 0.24 0.25 0.23 0.24 0.29 0.31 0.32 0.32 0.31 0.29 0.27 0.29 0.31 0.31 0.36 0.45 0.55 0.60 0.62 0.63 0.68 0.77 0.81 0.80
0.13 0.11 0.12 0.23 0.25 0.22 0.20 0.19 0.20 0.23 0.20 0.15 0.12 0.09 0.12 0.15 0.17 0.18 0.20 0.23 0.24 0.26 0.27 0.26 0.27 0.31 0.30 0.28 0.28 0.30 0.31 0.32 0.31 0.34 0.38 0.42 0.48 0.53 0.55 0.57 0.59 0.65 0.71
0.09 0.10 0.11 0.21 0.25 0.21 0.18 0.20 0.21 0.21 0.20 0.17 0.14 0.10 0.10 0.12 0.14 0.18 0.20 0.25 0.27 0.29 0.29 0.28 0.29 0.32 0.33 0.30 0.29 0.31 0.34 0.34 0.33 0.34 0.37 0.40 0.42 0.45 0.49 0.50 0.51 0.54 0.58
0.08 0.08 0.09 0.14 0.15 0.12 0.13 0.17 0.19 0.20 0.19 0.17 0.15 0.14 0.13 0.13 0.13 0.16 0.21 0.28 0.34 0.34 0.31 0.28 0.30 0.34 0.37 0.37 0.36 0.36 0.35 0.35 0.35 0.36 0.39 0.43 0.46 0.49 0.51 0.52 0.52 0.56 0.61
0.09 0.10 0.10 0.12 0.13 0.14 0.18 0.19 0.18 0.18 0.20 0.20 0.18 0.18 0.17 0.16 0.15 0.17 0.22 0.27 0.31 0.33 0.32 0.29 0.29 0.33 0.38 0.42 0.44 0.42 0.39 0.37 0.34 0.34 0.38 0.42 0.45 0.46 0.49 0.52 0.54 0.56 0.61
0.10 0.10 0.11 0.13 0.13 0.15 0.17 0.18 0.19 0.20 0.22 0.24 0.25 0.22 0.22 0.21 0.19 0.19 0.20 0.24 0.26 0.27 0.28 0.30 0.34 0.37 0.39 0.39 0.40 0.43 0.50 0.49 0.42 0.39 0.39 0.43 0.46 0.48 0.52 0.56 0.59 0.62 0.66
0.10 0.09 0.11 0.14 0.16 0.17 0.18 0.19 0.20 0.21 0.23 0.25 0.27 0.28 0.28 0.26 0.23 0.22 0.23 0.26 0.26 0.26 0.29 0.31 0.33 0.35 0.37 0.37 0.35 0.36 0.40 0.40 0.41 0.42 0.41 0.43 0.47 0.52 0.57 0.60 0.63 0.68 0.73